DW9996 Weather Reports


Display with metric or nautical units.
time (UTC)temp
F
wind
direction
speed
MPH
gust
MPH
rain 1hr
in
rain 24hr
in
rain mn
in
humidity
%
barometer
mb
20260507203032 68 321 7.0 18.0 0.00 0.00 0.00 31 1007.7
20260507201530 67 323 7.0 16.0 0.00 0.00 0.00 32 1007.7
20260507200029 67 317 7.0 14.0 0.00 0.00 0.00 31 1007.5
20260507194531 67 317 6.0 13.0 0.00 0.00 0.00 32 1007.6
20260507193029 66 347 5.0 13.0 0.00 0.00 0.00 33 1007.6
20260507191527 67 328 9.0 16.0 0.00 0.00 0.00 31 1007.6
20260507190026 69 355 7.0 14.0 0.00 0.00 0.00 32 1007.7
20260507184523 67 323 8.0 14.0 0.00 0.00 0.00 33 1007.9
20260507183022 68 288 9.0 15.0 0.00 0.00 0.00 36 1008.1
20260507181521 67 336 6.0 17.0 0.00 0.00 0.00 35 1008.2
20260507180019 67 338 9.0 15.0 0.00 0.00 0.00 36 1008.3
20260507174517 67 319 6.0 14.0 0.00 0.00 0.00 39 1008.5
20260507173026 65 329 6.0 24.0 0.00 0.00 0.00 40 1008.7
20260507171515 65 360 9.0 17.0 0.00 0.00 0.00 39 1008.8
20260507170013 65 304 7.0 15.0 0.00 0.00 0.00 40 1008.8
20260507164509 64 351 7.0 16.0 0.00 0.00 0.00 41 1008.7
20260507163007 64 321 8.0 15.0 0.00 0.00 0.00 41 1008.9
20260507161517 63 294 5.0 10.0 0.00 0.00 0.00 42 1008.9
20260507160006 64 335 7.0 12.0 0.00 0.00 0.00 41 1009.1
20260507154502 61 339 4.0 14.0 0.00 0.00 0.00 44 1009.2
20260507153057 58 282 4.0 8.0 0.00 0.00 0.00 46 1009.3
20260507151553 56 306 3.0 7.0 0.00 0.00 0.00 45 1009.6
20260507150050 53 288 3.0 6.0 0.00 0.00 0.00 44 1009.6
20260507144613 50 209 3.0 7.0 0.00 0.00 0.00 43 1009.2
20260507143052 49 284 1.0 3.0 0.00 0.00 0.00 42 1009.7
20260507141610 48 309 0.0 1.0 0.00 0.00 0.00 40 1009.7
20260507140049 47 16 0.0 4.0 0.00 0.00 0.00 40 1009.8
20260507134549 47 12 3.0 6.0 0.00 0.00 0.00 40 1009.8
20260507133046 46 355 2.0 4.0 0.00 0.00 0.00 49 1009.7
20260507131546 45 198 0.0 0.0 0.00 0.00 0.00 50 1009.7
20260507130045 45 198 0.0 1.0 0.00 0.00 0.00 51 1009.5
20260507124543 44 198 1.0 3.0 0.00 0.00 0.00 51 1009.6
20260507123046 44 92 0.0 9.0 0.00 0.00 0.00 50 1009.1
20260507121541 44 50 1.0 3.0 0.00 0.00 0.00 52 1008.8
20260507120041 43 50 2.0 3.0 0.00 0.00 0.00 53 1009.1
20260507114540 42 288 5.0 11.0 0.00 0.00 0.00 58 1009.0
20260507113037 42 294 4.0 8.0 0.00 0.00 0.00 55 1008.4
20260507111543 42 297 3.0 7.0 0.00 0.00 0.00 56 1008.3
20260507110037 41 293 2.0 6.0 0.00 0.00 0.00 59 1008.3
20260507104536 41 265 4.0 9.0 0.00 0.00 0.00 58 1008.2
20260507103036 43 296 4.0 9.0 0.00 0.00 0.00 52 1007.9
20260507101543 42 301 2.0 4.0 0.00 0.00 0.00 54 1008.1
20260507100037 41 298 2.0 5.0 0.00 0.00 0.00 56 1008.1
20260507094540 41 309 2.0 10.0 0.00 0.00 0.00 57 1008.3
20260507093034 42 301 2.0 5.0 0.00 0.00 0.00 52 1008.2
20260507091529 44 9 0.0 0.0 0.00 0.00 0.00 49 1008.2
20260507090029 45 9 1.0 3.0 0.00 0.00 0.00 48 1008.1
20260507084523 46 9 0.0 2.0 0.00 0.00 0.00 48 1007.9
20260507083013 48 360 4.0 9.0 0.00 0.00 0.00 45 1008.0
20260507081519 48 34 2.0 5.0 0.00 0.00 0.00 43 1008.1
20260507080008 48 46 0.0 2.0 0.00 0.00 0.00 43 1007.9
20260507074508 48 46 0.0 2.0 0.00 0.00 0.00 42 1008.0
20260507073007 49 60 0.0 4.0 0.00 0.00 0.00 40 1007.9
20260507071501 50 98 2.0 8.0 0.00 0.00 0.00 38 1007.9
20260507064557 52 76 2.0 7.0 0.00 0.00 0.00 39 1007.7
20260507063053 52 79 5.0 10.0 0.00 0.00 0.00 39 1007.9
20260507061550 53 49 4.0 6.0 0.00 0.00 0.00 43 1008.2
20260507060054 54 61 4.0 9.0 0.00 0.00 0.00 37 1007.9
20260507054549 55 50 5.0 15.0 0.00 0.00 0.00 37 1007.9
20260507053051 56 96 7.0 13.0 0.00 0.00 0.00 34 1007.6
20260507051545 56 94 4.0 8.0 0.00 0.00 0.00 33 1007.4
20260507050042 56 103 8.0 12.0 0.00 0.00 0.00 33 1007.4
20260507044554 56 99 6.0 10.0 0.00 0.00 0.00 33 1007.6
20260507043041 57 123 1.0 8.0 0.00 0.00 0.00 33 1007.5
20260507041541 57 93 3.0 7.0 0.00 0.00 0.00 33 1007.4
20260507040040 56 139 2.0 3.0 0.00 0.00 0.00 35 1007.5
20260507034542 57 162 1.0 5.0 0.00 0.00 0.00 34 1007.4
20260507033039 58 71 5.0 7.0 0.00 0.00 0.00 31 1007.1
20260507031539 59 80 4.0 9.0 0.00 0.00 0.00 30 1006.9
20260507030038 60 103 5.0 11.0 0.00 0.00 0.00 29 1006.6
20260507024542 60 108 5.0 10.0 0.00 0.00 0.00 28 1006.6
20260507023036 62 98 6.0 10.0 0.00 0.00 0.00 27 1006.6
20260507021536 63 84 6.0 9.0 0.00 0.00 0.00 26 1006.8
20260507020045 64 89 5.0 8.0 0.00 0.00 0.00 26 1006.7
20260507014536 66 98 6.0 8.0 0.00 0.00 0.00 24 1006.7
20260507013033 67 105 4.0 8.0 0.00 0.00 0.00 23 1006.8
20260507011530 67 96 2.0 5.0 0.00 0.00 0.00 22 1006.9
20260507010029 68 98 2.0 7.0 0.00 0.00 0.00 22 1007.2
20260507004531 68 85 6.0 9.0 0.00 0.00 0.00 23 1007.2
20260507003029 68 66 2.0 7.0 0.00 0.00 0.00 22 1007.3
20260507001534 68 25 3.0 8.0 0.00 0.00 0.00 22 1007.6
20260507000121 68 348 4.0 11.0 0.00 0.00 0.00 21 1007.7
20260506234517 69 5 0.0 9.0 0.00 0.00 0.00 21 1007.9
20260506233014 69 306 3.0 9.0 0.00 0.00 0.00 21 1008.0
20260506231513 69 334 4.0 13.0 0.00 0.00 0.00 21 1008.2
20260506230007 69 355 5.0 11.0 0.00 0.00 0.00 20 1008.5
20260506224504 68 254 4.0 8.0 0.00 0.00 0.00 20 1008.9
20260506223001 68 333 7.0 12.0 0.00 0.00 0.00 20 1009.2
20260506221558 67 265 4.0 10.0 0.00 0.00 0.00 21 1009.6
20260506220057 67 291 5.0 10.0 0.00 0.00 0.00 23 1009.9
20260506214608 67 253 3.0 9.0 0.00 0.00 0.00 21 1010.2
20260506213049 65 227 2.0 8.0 0.00 0.00 0.00 22 1010.4
20260506211547 64 321 4.0 11.0 0.00 0.00 0.00 21 1010.7
20260506210049 64 262 7.0 12.0 0.00 0.00 0.00 22 1010.9
20260506204543 63 290 5.0 8.0 0.00 0.00 0.00 22 1011.3